Weather in Kamyshevo

Russia / Sverdlovsk Oblast     56°32′23″N   61°20′54″E
temp.,
°C
wind,
m/s
gust,
m/s
humid.,
%
clouds,
%
prec.,
mm/h
press.,
hPa
HPBL,
m
3 august, tue
tue323:00+19wsw2269100 0.0 101337
02:00+16wsw3894100 1.1 1013151
05:00+16w399389 1.9 1013203
08:00+19w3987100 0.1 1013276
11:00+25wnw4660100 0.1 1013872
14:00+27nw4750100 0.0 10121516
17:00+23nnw4876100 0.5 1013428
20:00+22nw228336 0.0 101239
4 august, wed
wed423:00+18n0091100 0.0 101311
02:00+17sw119441 0.0 101411
05:00+17s11945 0.0 101411
08:00+21ssw237642 0.0 1014250
11:00+27sse22525 0.0 1013910
14:00+31sse12405 0.0 10121648
17:00+31se223710 0.0 10112199
20:00+25se39642 0.0 1010212
5 august, thu
thu523:00+19ese398849 1.1 1012190
02:00+18sse398955 0.4 1011213
05:00+17ssw389071 0.4 1010152
08:00+22s237270 0.0 1009164
11:00+29ssw234599 0.0 1009807
14:00+33ssw133170 0.0 10071736
17:00+32wsw343359 0.0 10071366
20:00+25wnw3563100 0.0 1007106
6 august, fri
fri623:00+16w4997100 4.4 1009194
02:00+16wnw41192100 0.0 1009416
05:00+13w499634 0.0 1010384
08:00+16wnw4881100 0.0 1010909
11:00+19wnw5667100 0.0 10101084
14:00+16wnw577799 0.1 1011789
17:00+16wnw5776100 0.1 1012871
20:00+15wnw5983100 0.1 1012683
7 august, sat
sat723:00+15nw5107814 0.1 1012584
02:00+16nw51074100 0.0 1012615
05:00+15nw4107883 0.0 1013460
08:00+15wnw4874100 0.0 1014434
11:00+19nw575019 0.0 10141160
14:00+23nw56350 0.0 10141850
17:00+23nw56365 0.0 10152039
20:00+18nw39555 0.0 1016281